TimeCST,TemperatureF,Dew PointF,Humidity,Sea Level PressureIn,VisibilityMPH,Wind Direction,Wind SpeedMPH,Gust SpeedMPH,PrecipitationIn,Events,Conditions,WindDirDegrees,DateUTC
12:15 AM,41.2,38.7,91,30.08,7.0,ESE,4.6,-,N/A,,Clear,110,2012-11-09 06:15:00
12:35 AM,41.9,38.7,88,30.08,7.0,ESE,4.6,-,N/A,,Clear,110,2012-11-09 06:35:00
12:55 AM,43.7,39.7,86,30.07,7.0,ESE,8.1,-,N/A,,Clear,110,2012-11-09 06:55:00
1:15 AM,43.7,39.6,85,30.06,7.0,ESE,8.1,-,N/A,,Clear,120,2012-11-09 07:15:00
1:35 AM,43.3,39.4,86,30.05,7.0,ESE,6.9,-,N/A,,Clear,120,2012-11-09 07:35:00
1:55 AM,43.0,39.4,87,30.05,7.0,SE,5.8,-,N/A,,Clear,130,2012-11-09 07:55:00
2:15 AM,42.8,39.4,88,30.05,7.0,ESE,4.6,-,N/A,,Clear,120,2012-11-09 08:15:00
2:35 AM,41.9,39.0,90,30.05,7.0,SE,4.6,-,N/A,,Clear,130,2012-11-09 08:35:00
2:55 AM,41.5,38.7,89,30.05,7.0,ESE,4.6,-,N/A,,Scattered Clouds,120,2012-11-09 08:55:00
3:15 AM,42.1,39.2,90,30.05,7.0,ESE,6.9,-,N/A,,Clear,110,2012-11-09 09:15:00
3:35 AM,42.8,39.6,88,30.05,7.0,ESE,5.8,-,N/A,,Mostly Cloudy,120,2012-11-09 09:35:00
3:55 AM,43.5,39.9,87,30.05,7.0,ESE,5.8,-,N/A,,Overcast,120,2012-11-09 09:55:00
4:15 AM,43.9,40.5,88,30.05,7.0,ESE,4.6,-,N/A,,Overcast,120,2012-11-09 10:15:00
4:35 AM,43.7,40.1,87,30.05,7.0,SE,4.6,-,N/A,,Scattered Clouds,130,2012-11-09 10:35:00
4:55 AM,43.3,40.1,88,30.05,7.0,SE,5.8,-,N/A,,Scattered Clouds,130,2012-11-09 10:55:00
5:15 AM,43.7,40.3,88,30.05,7.0,SE,4.6,-,N/A,,Scattered Clouds,130,2012-11-09 11:15:00
5:35 AM,43.9,40.3,87,30.05,7.0,SE,4.6,-,N/A,,Mostly Cloudy,140,2012-11-09 11:35:00
5:55 AM,43.2,39.9,88,30.05,7.0,SE,4.6,-,N/A,,Scattered Clouds,140,2012-11-09 11:55:00
6:15 AM,43.2,39.7,88,30.05,7.0,SE,4.6,-,N/A,,Clear,130,2012-11-09 12:15:00
6:35 AM,43.0,39.9,89,30.05,7.0,SE,4.6,-,N/A,,Mostly Cloudy,130,2012-11-09 12:35:00
6:55 AM,44.1,40.6,88,30.05,5.0,ESE,4.6,-,N/A,,Overcast,120,2012-11-09 12:55:00
7:15 AM,44.6,41.0,87,30.05,7.0,SE,4.6,-,N/A,,Overcast,130,2012-11-09 13:15:00
7:35 AM,45.5,41.4,85,30.05,7.0,ESE,3.5,-,N/A,,Overcast,120,2012-11-09 13:35:00
7:55 AM,45.7,41.2,84,30.05,7.0,ESE,5.8,-,N/A,,Mostly Cloudy,110,2012-11-09 13:55:00
8:15 AM,47.1,41.9,82,30.05,7.0,SSE,4.6,-,N/A,,Scattered Clouds,160,2012-11-09 14:15:00
8:35 AM,48.7,42.3,78,30.05,7.0,SSE,6.9,-,N/A,,Clear,150,2012-11-09 14:35:00
8:55 AM,50.5,43.0,75,30.04,7.0,South,8.1,-,N/A,,Clear,170,2012-11-09 14:55:00
9:15 AM,52.3,43.3,71,30.03,10.0,SSE,5.8,-,N/A,,Clear,160,2012-11-09 15:15:00
9:35 AM,53.6,43.5,69,30.03,10.0,South,6.9,-,N/A,,Clear,170,2012-11-09 15:35:00
9:55 AM,54.7,43.7,66,30.03,10.0,South,4.6,-,N/A,,Clear,170,2012-11-09 15:55:00
10:15 AM,56.5,45.0,65,30.03,10.0,SSE,4.6,-,N/A,,Clear,160,2012-11-09 16:15:00
10:35 AM,57.2,44.6,63,30.02,10.0,South,5.8,-,N/A,,Scattered Clouds,170,2012-11-09 16:35:00
10:55 AM,56.7,45.0,65,30.02,10.0,ESE,4.6,-,N/A,,Mostly Cloudy,120,2012-11-09 16:55:00
11:15 AM,57.4,45.9,65,30.01,10.0,SE,4.6,-,N/A,,Overcast,140,2012-11-09 17:15:00
11:35 AM,57.6,44.8,62,30.00,10.0,Calm,Calm,-,N/A,,Overcast,0,2012-11-09 17:35:00
11:55 AM,57.9,46.6,66,30.00,10.0,ESE,5.8,-,N/A,,Overcast,120,2012-11-09 17:55:00
12:15 PM,58.1,46.6,65,29.99,10.0,ESE,4.6,-,N/A,,Overcast,110,2012-11-09 18:15:00
12:35 PM,57.9,46.9,67,29.98,10.0,ESE,6.9,-,N/A,,Overcast,110,2012-11-09 18:35:00
12:55 PM,58.5,46.6,65,29.97,10.0,East,8.1,-,N/A,,Overcast,100,2012-11-09 18:55:00
1:15 PM,59.2,47.7,66,29.96,10.0,ESE,5.8,-,N/A,,Scattered Clouds,120,2012-11-09 19:15:00
1:35 PM,59.7,47.8,65,29.95,10.0,ESE,6.9,-,N/A,,Clear,110,2012-11-09 19:35:00
1:55 PM,60.8,48.2,63,29.95,10.0,SE,8.1,-,N/A,,Clear,130,2012-11-09 19:55:00
2:15 PM,60.8,48.7,64,29.95,10.0,SE,8.1,-,N/A,,Clear,130,2012-11-09 20:15:00
2:35 PM,61.7,49.3,64,29.94,10.0,ESE,9.2,-,N/A,,Clear,120,2012-11-09 20:35:00
2:55 PM,62.6,49.8,63,29.94,10.0,SE,8.1,-,N/A,,Clear,130,2012-11-09 20:55:00
3:15 PM,61.9,49.6,64,29.95,10.0,SSE,8.1,-,N/A,,Clear,150,2012-11-09 21:15:00
3:35 PM,61.0,49.3,65,29.94,10.0,SE,5.8,-,N/A,,Clear,130,2012-11-09 21:35:00
3:55 PM,61.2,49.8,66,29.94,10.0,SE,4.6,-,N/A,,Clear,130,2012-11-09 21:55:00
4:15 PM,60.8,50.0,68,29.94,10.0,East,6.9,-,N/A,,Clear,100,2012-11-09 22:15:00
4:35 PM,59.9,49.5,68,29.93,10.0,East,4.6,-,N/A,,Clear,90,2012-11-09 22:35:00
4:55 PM,59.0,49.5,71,29.93,10.0,East,5.8,-,N/A,,Clear,90,2012-11-09 22:55:00
5:15 PM,59.0,49.5,71,29.93,10.0,East,6.9,-,N/A,,Clear,90,2012-11-09 23:15:00
5:35 PM,58.6,49.6,72,29.93,10.0,East,9.2,-,N/A,,Clear,90,2012-11-09 23:35:00
5:55 PM,59.0,50.2,73,29.93,10.0,East,9.2,-,N/A,,Clear,90,2012-11-09 23:55:00
6:15 PM,57.7,50.2,76,29.93,10.0,East,8.1,-,N/A,,Clear,80,2012-11-10 00:15:00
6:35 PM,57.2,50.2,77,29.93,10.0,East,5.8,-,N/A,,Clear,90,2012-11-10 00:35:00
6:55 PM,57.2,50.4,78,29.93,10.0,East,3.5,-,N/A,,Clear,90,2012-11-10 00:55:00
7:15 PM,56.5,50.4,80,29.93,10.0,Calm,Calm,-,N/A,,Clear,0,2012-11-10 01:15:00
7:35 PM,55.2,50.0,83,29.93,10.0,Calm,Calm,-,N/A,,Clear,0,2012-11-10 01:35:00
7:55 PM,54.0,49.8,86,29.94,10.0,Calm,Calm,-,N/A,,Clear,0,2012-11-10 01:55:00
8:15 PM,53.1,49.3,87,29.94,10.0,Calm,Calm,-,N/A,,Clear,0,2012-11-10 02:15:00
8:35 PM,53.6,49.3,85,29.94,10.0,Calm,Calm,-,N/A,,Clear,0,2012-11-10 02:35:00
8:55 PM,54.7,50.0,84,29.94,10.0,East,3.5,-,N/A,,Clear,80,2012-11-10 02:55:00
9:15 PM,54.5,50.0,85,29.95,10.0,Calm,Calm,-,N/A,,Clear,0,2012-11-10 03:15:00
9:35 PM,54.1,49.8,85,29.95,10.0,Calm,Calm,-,N/A,,Clear,0,2012-11-10 03:35:00
9:55 PM,54.7,50.0,84,29.94,10.0,Calm,Calm,-,N/A,,Scattered Clouds,0,2012-11-10 03:55:00
10:15 PM,53.6,50.2,88,29.94,10.0,SE,3.5,-,N/A,,Scattered Clouds,140,2012-11-10 04:15:00
10:35 PM,55.2,51.1,86,29.95,10.0,Calm,Calm,-,N/A,,Clear,0,2012-11-10 04:35:00
10:55 PM,55.9,51.4,85,29.95,10.0,SE,3.5,-,N/A,,Clear,130,2012-11-10 04:55:00
11:15 PM,55.8,51.6,86,29.95,10.0,SE,4.6,-,N/A,,Clear,130,2012-11-10 05:15:00
11:35 PM,56.8,52.2,84,29.95,10.0,ESE,3.5,-,N/A,,Clear,120,2012-11-10 05:35:00
11:55 PM,55.0,51.8,89,29.95,10.0,SE,3.5,-,N/A,,Clear,140,2012-11-10 05:55:00